Home > Weather > Leeds > Past weeks

Flag for United Kingdom Past Weather in Leeds, England, United Kingdom — Yesterday and Last 2 Weeks

Now
55 °F

Passing clouds.


Feels Like: 55 °F
Forecast: 54 / 66 °F
Wind: 3 mph from West

Location: Leeds And Bradford

Current Time: Jul 24, 2016 at 6:06:56 AM

Latest Report: Jul 24, 2016 at 5:20 AM


Visibility: N/A

Pressure: 30.07 "Hg

Humidity: 94%

Dew Point: 54 °F

Location of LeedsLocation

Past Weather in Leeds — Graph

°F

Leeds Temperature Yesterday

Maximum temperature yesterday: 72 °F (at 3:20 PM)
Minimum temperature yesterday: 57 °F (at 4:20 AM)
Average temperature yesterday: 64 °F

High & Low Weather Summary for the Past Weeks

 TemperatureHumidityPressure
High82 °F (Jul 19, 1:50 PM)100% (Jul 9, 10:20 AM)30.27 "Hg (Jul 9, 10:20 AM)
Low48 °F (Jul 14, 3:50 AM)45% (Jul 19, 2:20 PM)29.45 "Hg (Jul 11, 3:50 AM)
Average62 °F82%29.99 "Hg
* Reported Jul 9 4:20 AM — Jul 24 4:50 AM, Leeds, Weather by CustomWeather, © 2016

Note: Actual official high and low records may vary slightly from our data, if they occured in-between our weather recording intervals... More about our weather records

Advertising

Leeds Weather History for the Previous 24 Hours

Scroll right to see more
 ConditionsComfort  
Time TempWeatherWind HumidityBarometerVisibility
4:50 AM
Sun, Jul 24
55 °FPassing clouds.3 mph100%30.07 "HgN/A
4:20 AM55 °FPassing clouds.5 mph100%30.07 "HgN/A
3:50 AM57 °FPassing clouds.2 mph94%30.07 "HgN/A
3:20 AM57 °FPassing clouds.5 mph94%30.07 "HgN/A
2:50 AM57 °FPassing clouds.3 mph94%30.07 "HgN/A
2:20 AM59 °FPassing clouds.7 mph94%30.09 "HgN/A
1:50 AM59 °FPassing clouds.7 mph94%30.09 "HgN/A
1:20 AM59 °FPassing clouds.5 mph94%30.09 "HgN/A
12:50 AM61 °FPassing clouds.7 mph88%30.09 "HgN/A
12:20 AM61 °FPassing clouds.7 mph88%30.09 "HgN/A
11:50 PM
Sat, Jul 23
61 °FPassing clouds.8 mph94%30.09 "HgN/A
10:50 PM61 °FPassing clouds.12 mph94%30.12 "HgN/A
10:20 PM61 °FClear.10 mph94%30.12 "Hg10 mi
9:50 PM63 °FSunny.10 mph88%30.12 "Hg10 mi
9:20 PM63 °FSunny.9 mph88%30.12 "Hg10 mi
8:50 PM66 °FSunny.8 mph83%30.09 "Hg10 mi
8:20 PM66 °FSunny.6 mph83%30.09 "Hg10 mi
7:50 PM68 °FSunny.7 mph78%30.09 "Hg10 mi
7:20 PM68 °FSunny.6 mph78%30.09 "Hg10 mi
6:50 PM68 °FSunny.5 mph78%30.09 "Hg10 mi
6:20 PM70 °FSunny.6 mph78%30.09 "Hg10 mi
5:50 PM70 °FScattered clouds.6 mph73%30.09 "HgN/A
5:20 PM70 °FScattered clouds.6 mph78%30.09 "HgN/A
4:50 PM72 °FScattered clouds.8 mph73%30.09 "HgN/A
4:20 PM70 °FPassing clouds.7 mph73%30.09 "HgN/A
3:50 PM70 °FPassing clouds.7 mph78%30.09 "HgN/A
3:20 PM72 °FPassing clouds.8 mph73%30.12 "HgN/A
2:50 PM68 °FScattered clouds.7 mph78%30.12 "HgN/A
2:20 PM68 °FScattered clouds.8 mph78%30.12 "HgN/A
1:50 PM68 °FScattered clouds.7 mph78%30.12 "HgN/A
1:20 PM68 °FPartly sunny.8 mph83%30.12 "HgN/A
12:50 PM68 °FPartly sunny.8 mph78%30.12 "HgN/A
12:20 PM66 °FPartly sunny.3 mph83%30.12 "HgN/A
11:50 AM68 °FPartly sunny.6 mph78%30.12 "HgN/A
11:20 AM66 °FPartly sunny.5 mph83%30.12 "HgN/A
10:50 AM66 °FScattered clouds.5 mph78%30.12 "HgN/A
10:20 AM66 °FPassing clouds.7 mph78%30.12 "HgN/A
9:50 AM64 °FPassing clouds.3 mph83%30.12 "HgN/A
9:20 AM63 °FPassing clouds.3 mph88%30.12 "HgN/A
8:50 AM63 °FPassing clouds.5 mph88%30.12 "HgN/A
8:20 AM61 °FPassing clouds.5 mph94%30.12 "HgN/A
7:50 AM59 °FScattered clouds.5 mph94%30.12 "HgN/A
7:20 AM59 °FScattered clouds.5 mph94%30.12 "HgN/A
6:50 AM57 °FScattered clouds.6 mph100%30.12 "HgN/A
6:20 AM57 °FScattered clouds.8 mph100%30.09 "HgN/A
Weather by CustomWeather, © 2016

See weather overviewHow to use our weather pages